Regional Weather Roundup
Issued by NWS

Home | Current Version | Previous Version | Text Only | Print | Product List | Glossary On
Versions: 1 2 3 4 5 6 7 8 9 10 11 12 13 14 15 16 17 18 19 20 21 22 23 24 25 26 27 28 29 30 31 32 33 34 35 36 37 38 39 40 41 42 43 44 45 46 47 48 49 50
315
ASUS43 KMPX 221101
RWRMN
WEATHER ROUNDUP FOR MINNESOTA
NATIONAL WEATHER SERVICE TWIN CITIES/CHANHASSEN MN
500 AM CST WED FEB 22 2017


NOTE: "FAIR" INDICATES FEW OR NO CLOUDS BELOW 12,000 FEET WITH NO
SIGNIFICANT WEATHER AND/OR OBSTRUCTIONS TO VISIBILITY. N/A MEANS
CURRENT SKY AND/OR WEATHER CONDITIONS ARE NOT AVAILABLE.

MNZ060>063-068>070-221200-
   Twin Cities Metro

CITY           SKY/WX    TMP DP  RH WIND       PRES   REMARKS
TWIN CITIES    PTCLDY    41  38  89 SE10      29.57F
ST PAUL        MOCLDY    37  37 100 SE6       29.59F FOG
CRYSTAL        CLOUDY    41  38  89 CALM      29.56F
BLAINE         CLOUDY    43  43 100 E3        29.57F
LAKEVILLE      CLOUDY    36  36 100 CALM      29.59F
EDEN PRAIRIE   PTCLDY    42  39  89 SE9       29.56F
SOUTH ST PAUL  MOCLDY    40  39  98 CALM      29.59F FOG
LAKE ELMO      FAIR      39  39 100 SE5       29.60F
$$
MNZ001>005-007-008-013>017-022>024-027-028-221200-
   Northwest Minnesota

CITY           SKY/WX    TMP DP  RH WIND       PRES   REMARKS
BEMIDJI        CLOUDY    34  34 100 CALM      29.64S FOG
HALLOCK        CLOUDY    34  34 100 N9        29.70S WCI  26
ROSEAU         LGT SNOW  32  28  86 CALM      29.71S
WARROAD        LGT SNOW  34  28  80 NW3       29.71S
THIEF RVR FALL LGT RAIN  33  32  96 NE7       29.66F WCI  27
CROOKSTON      CLOUDY    32  32 100 NE3       29.68S FOG
FOSSTON        FOG       32  30  93 N3        29.66R VSB 3/4
DETROIT LAKES  CLOUDY    34  32  93 N3        29.64S FOG
MOORHEAD       FOG       34  32  93 N8        29.66S VSB 1/2 WCI  27
PARK RAPIDS    PTCLDY    36  32  85 N6        29.63R
MAHNOMEN       FOG       32  32 100 N3        29.64R VSB 1/2
$$
MNZ006-009>011-018-025>026-221200-
   North Central Minnesota

CITY           SKY/WX    TMP DP  RH WIND       PRES   REMARKS
BAUDETTE       FLURRIES  32  30  92 N5        29.68F WCI  27
FLAG ISLAND    CLOUDY    34  30  86 CALM      29.70R
INTL FALLS     CLOUDY    33  30  88 N5        29.67R WCI  29
WASKISH        CLOUDY    34  32  93 NE3       29.66S
BIG FORK       CLOUDY    36  34  93 NW3       29.65R
LONGVILLE      CLOUDY    32  32 100 CALM      29.62F
GRAND RAPIDS   LGT RAIN  34  34 100 N3        29.65R FOG
CRANE LAKE     CLOUDY    30  28  93 CALM      29.67S
ORR            CLOUDY    32  28  86 CALM      29.63R
COOK           CLOUDY    34  34 100 CALM      29.65R
WALKER         FAIR      33  33  99 NW3       29.64R
$$
MNZ012-019>021-037-221200-
   Northeast Minnesota

CITY           SKY/WX    TMP DP  RH WIND       PRES   REMARKS
DULUTH         CLOUDY    36  35  96 N3        29.63R
ELY            CLOUDY    32  32 100 CALM      29.62F
HIBBING        CLOUDY    32  32 100 NW3       29.63R
EVELETH        CLOUDY    33  33  96 CALM      29.65R
DULUTH HARBOR  CLOUDY    34  32  93 CALM      29.65R FOG
TWO HARBORS    CLOUDY    39  36  87 NW3       29.62R
SILVER BAY     PTCLDY    32  32 100 CALM      29.62R
GRAND MARAIS     N/A     37  34  89 NW3       29.63F
G MARAIS ARPRT CLOUDY    34  28  80 CALM      29.63R
$$
MNZ029>031-032-039>041-046>048-054>057-064-221200-
   West Central Minnesota

CITY           SKY/WX    TMP DP  RH WIND       PRES   REMARKS
FERGUS FALLS   CLOUDY    37  36  93 NE3       29.64F
WHEATON        CLOUDY    36  34  93 CALM      29.64R
MORRIS         CLOUDY    36  36 100 N5        29.61R
ALEXANDRIA     CLOUDY    37  36  96 NE6       29.60S
ELBOW LAKE     FAIR      38  35  89 NE5       29.62R
WADENA         CLOUDY    32  32 100 CALM      29.61F FOG
GLENWOOD       PTCLDY    34  34 100 E7        29.61S FOG     WCI  28
APPLETON       CLOUDY    37  36  93 CALM      29.60R
BENSON         CLOUDY    37  34  87 CALM      29.62R
ORTONVILLE     CLOUDY    36  34  93 CALM      29.60R
MADISON        CLOUDY    41  41 100 CALM      29.59S
WILLMAR        FAIR      41  39  93 NE5       29.60F
$$
MNZ033>034-036-042>043-049>051-058-059-221200-
   Central Minnesota

CITY           SKY/WX    TMP DP  RH WIND       PRES   REMARKS
ST CLOUD       PTCLDY    35  35 100 N3        29.60F FOG
SAUK CENTRE    FAIR      34  34 100 CALM      29.62R FOG
PAYNESVILLE    CLOUDY    38  39 100 CALM      29.61R
AITKIN         CLOUDY    34  30  86 CALM      29.62R FOG
PINE RIVER     DRIZZLE   34  34 100 CALM      29.67R
BRAINERD       LGT RAIN  33  33 100 CALM      29.63R
STAPLES        CLOUDY    34  34 100 CALM      29.61F FOG
LONG PRAIRIE   FAIR      32  32 100 N5        29.61S FOG     WCI  27
LITTLE FALLS   FOG       32  32 100 N5        29.63S VSB 1   WCI  27
LITCHFIELD     CLOUDY    39  39 100 N5        29.60R
BUFFALO        FOG       39  38  97 CALM      29.60R VSB 1
MAPLE LAKE     MOCLDY    40  40 100 NW3       29.61R
HUTCHINSON     CLOUDY    37  37 100 CALM      29.60R FOG
$$
MNZ037-044-045-052-053-221200-
   East Central Minnesota

CITY           SKY/WX    TMP DP  RH WIND       PRES   REMARKS
PRINCETON      FOG       37  36  93 N3        29.60R VSB 3/4
MORA           FOG       32  32 100 CALM      29.64S VSB 1
CAMBRIDGE      FOG       37  36  93 N3        29.59F VSB 3/4
RUSH CITY      FOG       32  32 100 NE5       29.62R VSB 3/4 WCI  27
MOOSE LAKE     CLOUDY    32  30  93 CALM      29.61S FOG
HINCKLEY       FOG       32  32 100 CALM      29.64R VSB 1
CLOQUET        CLOUDY    36  34  93 NW6       29.63R FOG
MCGREGOR       CLOUDY    34  32  93 CALM      29.64R
$$
MNZ071>073-080-081-089-090-097-098-221200-
   Southwest Minnesota

CITY           SKY/WX    TMP DP  RH WIND       PRES   REMARKS
MONTEVIDEO     CLOUDY    39  39 100 N3        29.62R
GRANITE FALLS  CLOUDY    40  39  96 CALM      29.60R
CANBY          CLOUDY    41  40  93 NW3       29.62R
MARSHALL       MOCLDY    42  38  85 NW3       29.58S
REDWOOD FALLS  MOCLDY    39  36  89 SW7       29.58R
OLIVIA         MOCLDY    39  36  87 SE3       29.55F
PIPESTONE      PTCLDY    43  34  70 S6        29.61S
WINDOM         CLEAR     39  36  87 CALM      29.61S
WORTHINGTON    CLEAR     43  34  70 SW8       29.62F
JACKSON        CLEAR     41  32  70 S8        29.61F
TRACY          PTCLDY    46  40  80 SW10      29.59S
SLAYTON        PTCLDY    39  35  85 S10       29.61F
$$
MNZ065>067-074>077-082>085-091>093-221200-
   South Central Minnesota

CITY           SKY/WX    TMP DP  RH WIND       PRES   REMARKS
MANKATO          N/A     37  35  92 SE10      29.61F
NEW ULM        PTCLDY    37  37 100 SE6       29.60R
ST JAMES       PTCLDY    39  36  87 CALM      29.61S
FAIRMONT       PTCLDY    39  34  82 S6        29.62F
GLENCOE        PTCLDY    40  40 100 SE3       29.57S
FARIBAULT      PTCLDY    37  36  93 S3        29.62S
OWATONNA       CLOUDY    37  36  93 SE7       29.63F
WASECA         PTCLDY    36  34  93 SE8       29.65R
ALBERT LEA     PTCLDY    45  37  76 CALM      29.64R
$$
MNZ078>079-086>088-094>096-221200-
   Southeast Minnesota

CITY           SKY/WX    TMP DP  RH WIND       PRES   REMARKS
ROCHESTER      PTCLDY    40  35  83 S12       29.66R
RED WING       CLOUDY    39  37  93 E6        29.61F
STANTON        PTCLDY    38  35  89 CALM      29.60F
DODGE CENTER   PTCLDY    39  36  87 NW5       29.66R
WINONA         MOCLDY    45  36  70 CALM      29.67R
AUSTIN         PTCLDY    39  34  81 S3        29.65R
PRESTON        CLOUDY    40  33  76 S14       29.65F
$$
ABBREVIATIONS USED IN REMARKS
   TC - TEMPERATURES IN CELSIUS
  WCI - WIND CHILL INDEX
   HX - HEAT INDEX
  VSB - VISIBILITY
$$




USA.gov is the U.S. government's official web portal to all federal, state and local government web resources and services.